Location: Fond Mahaut
(18.0707°N, 63.0465°W)
Time: 15:17:17
(UTC+00:00)

Centaur AC-64 - Pass Details

Date: 08 December 2019
Orbit: 305 x 25751 km, 23.1° (Epoch: 19 January)

Event Time Altitude Azimuth Distance (km) Brightness Sun altitude
Rises 22:52:46 0° 269° (W) 2,337 6.9 -17.7°
Reaches altitude 10° 22:54:03 10° 274° (W) 1,733 5.9 -18.0°
Maximum altitude 22:57:21 64° 357° (N) 999 3.4 -18.8°
Enters shadow 23:02:20 27° 71° (ENE) 2,945 5.3 -19.9°
